www.pogodaiklimat.ru

Погода и климат >> Архив погоды >> Ирак >> Najaf


ПОГОДА в Najaf

  • Прогноз погоды в Najaf
  • Монитор погоды в Najaf
  • Климат города

АРХИВ ПОГОДЫ в Najaf

Время (UTC), дата Ветер
(напр.,м/с)
 
Видим.   Явления Облачность Т
(С)
Тd
(С)
f
(%)
Тe
(С)
Тes
(С)
Комфортность P
(гПа)
Po
(гПа)
Тmin
(С)
Tmax
(С)
R
(мм)
R24
(мм)
S
(см)
00 13.09 штиль 0 10 км ясно +32.7 +12.2 29 +33 +33 жарко 1008.6 1009.0
03 13.09 штиль 0 10 км ясно +31.5 +10.2 27 +31 +31 жарко 1008.7 1009.0
09 13.09 штиль 0 10 км ясно +43.3 +8.8 13 +41 +64 опасность
перегрева
1007.7 1008.0
12 13.09 С 5 10 км ясно +44.8 +9.9 13 +43 +48 опасность
перегрева
1006.7 1007.0
15 13.09 штиль 0 10 км ясно +41.5 +12.2 18 +41 +41 опасность
перегрева
1005.4 1005.0
18 13.09 штиль 0 10 км ясно +37.5 +12.1 22 +37 +37 очень
жарко
1005.8 1006.0 +45.0
21 13.09 штиль 0 10 км ясно +36.0 +12.6 25 +36 +36 очень
жарко
1004.8 1005.0
00 14.09 штиль 0 10 км ясно +34.2 +12.9 28 +35 +35 очень
жарко
1003.9 1004.0
06 14.09 штиль 0 10 км ясно +36.0 +14.7 28 +37 +48 душно 1005.0 1005.0 +31.2
09 14.09 штиль 0 10 км ясно +44.5 +12.5 15 +44 +66 опасность
перегрева
1004.7 1005.0
12 14.09 штиль 0 10 км ясно +47.0 +14.0 15 +47 +59 опасность
перегрева
1003.5 1004.0
15 14.09 штиль 0 10 км ясно +43.2 +11.1 15 +42 +42 опасность
перегрева
1003.5 1004.0
18 14.09 штиль 0 10 км ясно +38.0 +11.4 20 +37 +37 очень
жарко
1004.5 1005.0 +47.0
21 14.09 штиль 0 10 км ясно +35.2 +13.0 26 +35 +35 очень
жарко
1004.3 1004.0
03 15.09 С 2 6000 м пыль ясно +30.6 +14.4 37 +32 +32 жарко 1005.5 1006.0
06 15.09 С 5 7000 м пыль ясно +32.7 +14.7 34 +34 +39 очень
жарко
1007.4 1007.0 +29.6
09 15.09 С 5 7000 м пыль ясно +37.7 +13.9 24 +38 +47 очень
жарко
1007.4 1007.0
12 15.09 штиль 0 7000 м пыль ясно +41.0 +13.3 20 +41 +53 опасность
перегрева
1006.1 1006.0
03 16.09 штиль 0 10 км ясно +29.0 +12.0 35 +30 +30 жарко 1008.4 1008.0
15 16.09 штиль 0 10 км ясно +38.0 +14.9 26 +39 +39 очень
душно
1006.6 1007.0
21 16.09 штиль 0 10 км 5/0
[Ci sp]
+33.4 +14.7 32 +35 +35 душно 1007.1 1007.0
03 17.09 штиль 0 10 км ясно +30.0 +13.5 36 +31 +31 жарко 1006.6 1007.0
09 17.09 штиль 0 10 км ясно +41.6 +14.6 21 +42 +64 опасность
перегрева
1006.6 1007.0
15 17.09 штиль 0 10 км 5/0
[Ac trans Ci sp]
+39.8 +17.6 28 +43 +43 опасность
перегрева
1004.6 1005.0
03 18.09 штиль 0 10 км ясно +30.0 +13.7 37 +32 +32 жарко 1005.0 1005.0
09 18.09 штиль 0 10 км ясно +42.6 +15.5 21 +44 +66 опасность
перегрева
1005.5 1006.0
15 18.09 штиль 0 10 км ясно +41.7 +17.5 25 +45 +45 опасность
перегрева
1003.7 1004.0
21 18.09 штиль 0 10 км ясно +35.5 +15.1 30 +37 +37 душно 1004.4 1004.0
00 19.09 штиль 0 10 км ясно +33.0 +15.8 36 +36 +36 очень
душно
1003.9 1004.0
03 19.09 штиль 0 10 км 3/1 900 м
[Cu hum Ci fib]
+32.0 +15.5 37 +34 +34 душно 1004.4 1004.0
06 19.09 штиль 0 10 км 5/3
[Cu hum Ci sp]
+36.7 +16.2 30 +39 +46 очень
душно
1005.3 1005.0 +31.5
09 19.09 штиль 0 10 км 5/3
[Cu hum Ci sp]
+42.2 +12.3 17 +42 +56 опасность
перегрева
1004.9 1005.0
12 19.09 штиль 0 10 км 5/3
[Cu hum Ci sp]
+45.5 +12.5 15 +45 +52 опасность
перегрева
1004.0 1004.0
15 19.09 штиль 0 10 км 5/3
[Cu hum Ci sp]
+40.5 +16.7 25 +43 +43 опасность
перегрева
1004.0 1004.0

 

Местоположение метеостанции Najaf (Ирак): широта 31.98 долгота 44.32 высота над уровнем моря 32 м.

В архиве по умолчанию представлена погода в Najaf за последнюю неделю. Архивные данные за месяц целиком и за предыдущие месяцы, начиная с января 2011 года, Вы можете получить, выбрав интересующий диапазон дат из раскрывающегося списка и нажав кнопку "Ввод!".


*Определитесь, кто Вы:
робот инопланетянин человек

Внимание! Время в таблицах - всемирное. Для получения местного времени необходимо прибавить поправку, которая в Najaf равна 3 ч.

Смотрите также архив погоды в соседних городах и на ближайших метеорологических станциях:

Погода в Hella (Ирак) (54 км)
Погода в Diwaniya (Ирак) (62 км)
Погода в Karbalaa (Ирак) (77 км)
Погода в Samawah (Ирак) (118 км)
Погода в Azizyah (Ирак) (126 км)
Погода в Baghdad (Ирак) (139 км)
Погода в Ubaydah Bin Al Jarrah (Ирак) (146 км)
Погода в Kut-Al-Hai (Ирак) (164 км)
Погода в Rifai (Ирак) (171 км)
Погода в Ayn Al-Tamar (Ирак) (179 км)

Пояснения к столбцам:

Ветер - указаны скорость ветра в м/с - средняя за 10 мин, порывы в срок и между сроками (в фигурных скобках) и направление, откуда дует ветер: С - северный, СВ - северо-восточный, В - восточный, ЮВ - юго-восточный, Ю - южный, ЮЗ - юго-западный, З - западный, СЗ - северо-западный.
Видимость - горизонтальная дальность видимости в метрах или километрах. При видимости от 1 до 10 км при отсутствии осадков обычно наблюдается дымка, при ухудшении видимости до 1 км и менее - туман. В сухую погоду видимость может ухудшаться дымом, пылью или мглою.
Явления - указаны атмосферные явления, наблюдавшиеся в срок или в последний час перед сроком; фигурными скобками обозначены явления, наблюдавшиеся между сроками (за 1-3 часа до срока); квадратными скобками обозначены град или гололедные отложения с указанием их диаметра в мм.
Облачность - указаны через наклонную черту общая и нижняя облачность в баллах и высота нижней границы облаков в метрах; квадратными скобками обозначены формы облаков: Ci - перистые, Cs - перисто-слоистые, Cc - перисто-кучевые, Ac - высококучевые, As - высокослоистые, Sc - слоисто-кучевые, Ns - слоисто-дождевые, Cu - кучевые, Cb - кучево-дождевые. Подробнее классификацию облаков см. в Атласе облаков (PDF).
T - Температура воздуха - температура, измеренная на высоте 2 м над землей.
Td - Температура точки росы - температура, при понижении до которой содержащийся в воздухе водяной пар достигнет насыщения.
f - Относительная влажность воздуха - влажноcть воздуха, измеренная на высоте 2 м над землей.
Te - Эффективная температура - температура, которую ощущает одетый по сезону человек в тени. Характеристика душности погоды. При расчете учитывается влияние влажности воздуха и скорости ветра на теплоощущения человека.
Tes - Эффективная температура на солнце - температура, которую ощущает человек, с поправкой на солнечный нагрев. Характеристика знойности погоды. Зависит от высоты солнца над горизонтом, облачности и скорости ветра. Ночью, в пасмурную погоду, а также при ветре 12 м/с и более поправка равна нулю.
P - Атмосферное давление - приведенное к уровню моря атмосферное давление.
Po - Атмосферное давление - измеренное на уровне метеостанции атмосферное давление.
Tmin - Минимальная температура - минимум температуры воздуха на высоте 2 м над землей.
Tmax - Максимальная температура - максимум температуры воздуха на высоте 2 м над землей.
R - Количество осадков - Количество выпавших осадков за период времени, мм. При наведении курсора мыши на число - период времени, за который выпало указанное количество осадков.
R24 - Количество осадков - Количество выпавших осадков за 24 часа, мм.
S - Снежный покров - Высота снежного покрова, см. При наведении курсора мыши на число - состояние снежного покрова и степень покрытия местности в баллах.